Probability
0 0 0 0 0 0 0 0 0 0 0 0 0 0 0 0 0 0 0 0 0 0 0 0 0 1 2 2 3 2 1 0 0 0 0 0 0 0 0 0 0 0 0 0
0 0 0 0 0 0 0 0 0 0 0 0 0 0 0 0 0 0 0 0 0 0 0 0 0 0 1 1 2 2 1 0 0 0 0 0 0 0 0 0 0 0 0 0
0 0 0 0 0 0 0 0 0 0 0 0 0 0 0 0 0 0 0 0 0 0 0 0 0 0 0 0 1 1 1 0 0 0 0 0 0 0 0 0 0 0 0 0
0 0 0 0 0 0 0 0 0 0 0 0 0 0 0 0 0 0 0 0 0 0 0 0 0 0 0 0 0 0 0 0 0 0 0 0 0 0 0 0 0 0 0 0
0 0 0 0 0 0 0 0 0 0 0 0 0 0 0 0 0 0 0 0 0 0 0 0 0 0 0 0 0 0 0 0 0 0 0 0 0 0 0 0 0 0 0 0
0 0 0 0 0 0 0 0 0 0 0 0 0 0 0 0 0 0 0 0 0 0 0 0 0 0 0 0 0 0 0 0 0 0 0 0 0 0 0 1 1 1 1 0
0 0 0 0 0 0 0 0 0 0 0 0 0 0 0 0 0 0 0 0 0 0 0 0 0 0 0 0 0 0 0 0 0 0 0 0 0 0 0 1 2 2 2 1
0 0 0 0 0 0 0 0 0 0 0 0 0 0 0 0 0 0 0 0 0 0 0 0 0 0 0 0 0 0 0 0 0 0 0 0 0 0 0 1 3 3 3 2
0 0 0 0 0 0 0 0 0 0 0 0 0 0 0 0 0 0 0 0 0 0 0 0 0 0 0 0 0 0 0 0 0 0 0 0 0 0 0 1 2 3 3 2
0 0 0 0 0 0 0 0 0 0 0 0 0 0 0 0 0 0 0 0 0 0 0 0 0 0 0 0 0 0 0 0 0 0 0 0 0 0 0 0 1 3 3 3
0 0 0 0 0 0 0 0 0 0 0 0 0 0 0 0 0 0 0 0 0 0 0 0 0 0 0 0 0 0 0 0 0 0 0 0 0 0 0 0 1 2 3 3
0 0 0 0 0 0 0 0 0 0 0 0 0 0 0 0 0 0 0 0 0 0 0 0 0 0 0 0 0 0 0 0 0 0 0 0 0 0 0 0 0 1 2 2
0 0 0 0 0 0 0 0 0 0 0 0 0 0 0 0 0 0 0 0 0 0 0 0 0 0 0 0 0 0 0 0 0 0 0 0 0 0 0 0 0 0 1 1
0 0 0 0 0 0 0 0 0 0 0 0 0 0 0 0 0 0 0 0 0 0 0 0 0 0 0 0 0 0 0 0 0 0 0 0 0 0 0 0 0 0 0 0
0 0 0 0 0 0 0 0 0 0 0 0 0 0 0 0 0 0 0 0 0 0 0 0 0 0 0 0 0 0 0 0 0 0 0 0 0 0 0 0 0 0 0 0
0 0 0 0 0 0 0 0 0 0 0 0 0 0 0 0 0 0 0 0 0 0 0 0 0 0 0 0 0 0 0 0 0 0 0 0 0 0 0 0 0 0 0 0
0 0 0 0 0 0 0 0 0 0 0 0 0 0 0 0 0 0 0 0 0 0 0 0 0 0 0 0 0 0 0 0 0 0 0 0 0 0 0 0 0 0 0 0
0 0 0 0 0 0 0 0 0 0 0 0 0 0 0 0 0 0 0 0 0 0 0 0 0 0 0 0 0 0 0 0 0 0 0 0 0 0 0 0 0 0 0 0
0 0 0 0 0 0 0 0 0 0 0 0 0 0 0 0 0 0 0 0 0 0 0 0 0 0 0 0 0 0 0 0 0 0 0 0 0 0 0 0 0 0 0 0
0 0 0 0 0 0 0 0 0 0 0 0 0 0 0 0 0 0 0 0 0 0 0 0 0 0 0 0 0 0 0 0 0 0 0 0 0 0 0 0 0 0 0 0
0 0 0 0 0 0 0 0 0 0 0 0 0 0 0 0 0 0 0 0 0 0 0 0 0 0 0 0 0 0 0 0 0 0 0 0 0 0 0 0 0 0 0 0
0 0 0 0 0 0 0 0 0 0 0 0 0 0 0 0 0 0 0 0 0 0 0 0 0 0 0 0 0 0 0 0 0 0 0 0 0 0 0 0 0 0 0 0
0 0 0 0 0 0 0 0 0 0 0 0 0 0 0 0 0 0 0 0 0 0 0 0 0 0 0 0 0 0 0 0 0 0 0 0 0 0 0 0 0 0 0 0
0 0 0 0 0 0 0 0 0 0 0 0 0 0 0 0 0 0 0 0 0 0 0 0 0 0 0 0 0 0 0 0 0 0 0 0 0 0 0 0 0 0 0 0
0 0 0 0 0 0 0 0 0 0 0 0 0 0 0 0 0 0 0 0 0 0 0 0 0 0 0 0 0 0 0 0 0 0 0 0 0 0 0 0 0 0 0 0
0 0 0 0 0 0 0 0 0 0 0 0 0 0 0 0 0 0 0 0 0 0 0 0 0 0 0 0 0 0 0 0 0 0 0 0 0 0 0 0 0 0 0 0
Wind_Speed
2 3 3 4 6 5 5 6 7 5 2 4 8 8 6 5 5 5 4 4 4 3 2 3 2 3 3 3 2 2 1 1 1 1 1 1 1 0 1 1 2 2 1 1
2 4 4 3 4 5 7 8 7 4 1 4 7 10 7 6 6 5 4 3 3 3 2 2 2 3 2 2 2 2 1 1 1 1 1 1 1 1 1 1 2 2 2 1
4 1 2 3 3 4 6 6 5 5 5 6 6 8 6 5 4 2 2 2 2 3 3 3 3 3 3 2 2 2 2 1 1 0 1 1 1 1 1 1 0 1 1 1
4 2 2 3 4 4 6 3 4 5 4 4 3 5 5 5 4 4 4 3 3 2 3 3 3 3 2 2 2 2 2 1 1 1 1 2 1 1 1 0 0 0 0 0
2 1 2 4 3 4 3 3 4 5 5 5 5 5 5 4 5 5 5 4 3 2 2 3 3 3 3 2 2 1 1 1 1 1 1 1 1 0 0 0 0 0 0 1
2 1 1 2 2 3 2 3 4 4 3 6 7 6 5 3 5 4 4 4 3 2 2 2 2 3 3 2 2 2 1 1 1 1 0 1 1 1 1 0 0 0 1 1
3 3 1 1 1 2 2 1 1 2 4 6 3 5 5 1 1 2 3 3 3 3 2 2 2 3 2 2 2 1 1 1 1 1 1 1 1 2 2 1 1 0 0 1
3 3 5 2 2 2 4 3 3 3 4 2 2 6 3 2 3 3 3 3 3 3 3 3 2 2 2 2 1 1 1 1 1 1 1 1 0 1 1 1 1 1 1 1
3 2 2 1 2 2 3 4 2 1 2 3 5 4 1 1 2 2 1 2 3 3 3 2 2 2 2 2 1 1 1 1 1 1 0 1 1 0 0 0 0 0 0 0
2 2 1 1 1 3 2 1 1 3 3 5 5 5 4 4 3 2 2 2 2 2 3 2 2 2 1 1 1 1 1 1 0 0 0 0 0 0 0 0 0 0 0 1
1 1 1 2 5 4 3 3 3 3 3 3 4 4 1 3 3 3 2 2 2 2 2 2 1 2 2 2 1 1 1 1 0 1 1 1 0 0 0 0 0 0 0 1
1 1 3 3 0 2 3 4 4 4 4 4 4 5 3 4 3 2 2 2 2 2 2 2 2 2 2 1 1 1 1 1 1 1 1 1 1 1 1 1 1 1 1 1
2 2 1 2 1 0 2 3 3 2 1 3 4 6 2 3 3 3 2 1 1 1 2 2 2 1 1 1 0 0 1 1 1 1 1 1 1 1 1 2 2 2 1 1
1 3 5 5 2 2 4 4 4 3 5 6 8 7 4 2 2 2 1 0 0 1 1 1 1 0 0 0 0 0 1 1 1 1 1 1 1 1 1 2 2 2 2 2
1 3 4 5 5 3 5 6 7 8 8 7 7 8 7 4 4 3 2 1 1 1 1 1 1 0 0 0 0 0 0 0 0 1 0 1 1 1 1 2 2 2 2 2
1 2 1 4 4 4 7 9 10 11 10 12 11 12 6 4 2 2 2 2 2 2 2 1 1 1 1 1 1 0 1 0 1 0 1 1 1 2 2 2 2 2 2 2
3 3 2 4 2 3 9 11 12 9 8 8 12 11 3 3 3 3 2 1 2 2 2 1 2 2 1 1 0 0 0 1 1 1 1 1 1 1 2 2 2 2 2 2
4 3 2 1 1 8 8 2 7 9 9 8 8 5 3 3 3 2 1 2 2 1 1 2 1 1 0 0 1 1 1 1 1 1 1 1 1 1 2 2 2 3 3 3
3 4 3 2 4 9 5 2 3 5 7 6 8 5 3 2 3 2 1 1 1 1 0 0 1 1 1 1 1 1 1 1 1 1 2 2 2 2 2 2 2 3 3 3
2 3 3 4 4 8 4 1 1 1 6 3 4 3 2 0 2 3 1 1 2 2 2 1 1 2 1 1 1 1 1 1 1 2 2 2 1 1 2 2 2 2 2 3
4 4 6 6 7 9 3 2 3 4 6 1 2 2 2 3 4 1 1 2 2 2 2 2 2 2 1 1 1 1 1 1 2 2 2 2 2 2 2 2 2 2 2 2
9 7 7 6 7 10 3 4 6 5 1 0 0 1 1 2 1 0 1 1 2 2 2 2 2 1 1 2 1 0 0 1 2 2 2 2 2 2 2 2 2 2 2 2
8 9 6 9 9 3 6 6 4 1 1 2 1 1 1 2 2 1 1 0 1 1 0 1 1 1 1 1 1 1 1 1 2 2 2 2 2 2 2 1 1 1 1 1
5 3 4 5 7 4 4 4 3 2 3 2 2 2 2 3 3 2 2 1 1 1 1 1 1 0 0 1 1 0 1 1 1 1 2 2 1 2 2 1 1 1 1 2
5 4 4 6 6 4 5 5 4 3 2 2 2 2 2 3 3 2 2 2 1 1 0 1 1 1 1 1 1 1 1 1 1 1 1 2 2 1 2 2 1 2 2 2
7 8 8 8 6 5 5 4 3 3 4 3 3 2 1 2 3 2 2 1 1 1 1 1 1 1 1 1 1 1 1 1 0 1 1 1 1 1 1 2 3 4 4 5
Wind_Direction
217 222 210 221 230 265 286 275 271 274 256 257 254 258 253 232 233 234 222 206 202 203 153 136 139 129 118 109 110 120 119 116 123 129 138 145 174 171 99 81 66 63 46 34
202 235 243 257 249 260 267 267 272 283 285 269 267 264 251 233 223 218 212 207 197 186 148 140 140 129 130 131 132 134 138 145 149 178 175 165 159 144 109 83 70 54 38 26
228 270 266 253 257 261 262 259 272 287 301 271 276 273 222 215 204 189 186 196 191 178 177 172 168 162 153 148 148 145 152 149 163 177 134 103 94 80 65 33 28 27 35 19
245 265 278 249 249 259 261 273 272 280 281 263 235 280 238 201 203 200 204 203 204 186 169 160 159 162 160 155 147 150 152 134 136 133 121 131 153 179 217 225 256 27 72 357
228 209 247 245 249 259 272 313 274 261 261 270 235 246 260 188 216 213 203 197 186 174 164 154 154 157 149 142 145 153 139 125 126 144 161 167 176 199 96 82 103 74 57 25
263 280 267 265 272 258 275 295 275 250 242 252 225 218 259 206 212 193 183 180 164 142 126 124 123 124 125 121 128 125 119 112 113 143 191 177 175 158 117 91 75 2 16 5
229 200 186 267 233 213 240 215 272 247 227 241 199 217 246 178 115 129 150 148 139 136 133 116 106 120 126 125 126 132 145 147 149 179 221 203 193 183 179 190 195 201 326 326
221 226 178 196 223 215 224 225 205 221 245 271 232 231 237 107 80 63 89 121 127 140 139 131 127 118 128 135 141 149 163 152 162 189 234 179 183 187 180 183 203 210 227 248
235 236 126 189 273 242 212 229 273 279 294 272 243 224 222 110 99 111 114 123 121 121 127 132 133 134 131 135 149 168 159 148 177 202 236 195 186 179 148 155 182 191 233 280
303 263 221 167 224 249 262 273 164 200 221 251 257 231 226 189 195 173 157 149 132 126 133 135 136 130 123 130 136 128 134 140 167 168 200 223 220 194 190 159 38 3 335 317
296 210 218 205 214 204 192 207 208 220 239 228 260 255 63 147 164 171 175 166 151 142 142 126 115 102 99 93 91 83 82 82 49 42 43 47 31 8 164 178 213 353 336 314
195 215 246 235 225 336 236 218 192 201 239 234 255 265 50 70 82 90 75 66 80 103 114 119 113 102 92 89 86 95 86 74 47 42 47 43 19 3 12 2 354 347 333 311
155 179 249 276 254 295 264 242 233 245 250 228 231 256 60 42 33 26 38 33 51 88 96 98 95 105 112 105 94 102 86 62 46 61 47 30 15 12 6 356 353 351 338 327
186 209 212 224 253 189 235 236 216 197 219 237 236 257 280 310 321 329 324 282 141 116 104 102 109 105 79 1 209 110 66 56 47 64 59 18 0 353 352 348 347 343 339 335
165 234 241 266 284 277 256 239 215 217 226 232 254 257 264 255 254 260 251 250 219 193 182 188 208 214 245 275 235 59 50 42 60 62 29 346 350 351 3 358 348 343 342 340
190 239 262 270 266 272 271 252 236 234 238 248 262 269 279 265 256 260 239 236 239 248 249 245 228 224 244 264 288 342 352 345 85 82 349 10 13 359 3 358 348 344 339 342
187 187 227 266 309 323 265 232 218 223 220 224 245 257 270 270 249 241 242 235 246 266 270 264 237 233 251 254 246 247 336 28 49 33 7 12 15 356 347 348 347 337 332 340
179 179 203 254 355 245 245 192 200 220 235 230 247 264 271 278 267 267 238 235 244 244 262 263 242 250 303 64 70 53 60 67 53 14 358 7 7 345 346 348 337 332 333 328
197 178 194 201 240 267 270 226 186 209 252 232 239 253 277 318 322 294 289 191 170 175 164 218 147 143 83 81 78 84 79 71 42 356 346 350 351 335 333 327 323 325 324 319
218 185 191 205 228 245 253 176 133 130 273 246 215 229 241 110 270 266 16 55 65 55 57 53 74 94 85 47 62 92 72 55 2 339 335 339 334 315 305 304 312 322 317 314
175 198 210 217 235 257 252 170 120 179 252 278 169 197 197 223 238 269 59 57 68 65 56 60 79 83 62 50 72 90 51 350 341 350 348 345 334 311 301 309 321 321 320 322
180 185 198 194 219 247 183 149 185 217 275 98 176 226 230 251 273 340 63 69 64 54 51 58 72 60 46 61 88 109 334 348 4 2 353 339 331 321 328 323 321 325 317 315
204 196 192 200 217 220 168 192 210 162 220 253 254 262 231 257 257 245 241 168 112 95 91 88 98 67 45 60 98 178 328 17 12 1 341 331 329 325 325 309 308 320 319 313
231 220 216 239 248 236 216 222 237 233 233 246 245 239 233 250 257 253 239 221 206 211 179 138 137 198 314 38 56 82 24 32 36 346 326 326 324 325 331 314 308 300 298 296
207 184 212 241 258 277 258 236 240 258 266 265 265 247 232 233 249 247 240 228 218 215 204 174 196 218 257 24 22 12 32 44 23 331 319 326 324 317 317 314 294 285 270 274
202 194 202 231 224 221 242 227 232 243 257 263 272 277 266 228 243 243 235 227 216 210 176 171 203 237 314 3 343 345 16 57 77 312 325 325 317 319 315 315 322 322 314 315